SCP
-0 -0 -0 -0 0 -0 -0 -0 -0 -0 -0 0 0 0 0 0 0 0 0 0 0 0 0 0 0 0 0 0 0 1 2 1 0 0 0 0 0 0
0 -0 -0 -0 -0 0 0 -0 -0 -0 0 0 0 0 -0 -0 0 0 0 0 0 0 0 0 0 0 0 0 0 0 1 0 0 0 0 0 0 0
0 0 0 -0 -0 -0 0 -0 -0 -0 -0 0 -0 0 -0 -0 -0 -0 0 0 1 1 1 0 0 0 0 0 0 0 0 0 0 0 0 0 0 -0
0 0 0 0 0 -0 -0 -0 -0 0 0 0 0 0 -0 -0 0 0 0 0 0 0 0 0 0 0 0 0 0 0 0 0 0 0 0 0 -0 -0
-0 0 0 0 0 0 -0 -0 -0 -0 -0 -0 0 -0 -0 -0 -0 -0 0 0 0 0 1 0 0 0 0 0 0 0 0 0 0 0 0 0 -0 -0
0 0 0 0 0 0 -0 -0 -0 -0 -0 -0 -0 -0 -0 -0 -0 0 0 0 0 1 1 0 0 0 0 0 0 0 0 0 0 0 0 0 -0 -0
0 0 0 0 0 0 0 0 0 -0 -0 -0 -0 -0 0 0 0 0 0 0 1 1 2 1 0 0 0 0 0 0 0 0 0 0 0 0 -0 0
0 0 0 0 0 0 0 0 0 0 0 0 0 0 0 0 0 0 -0 0 1 1 2 2 0 0 0 0 0 0 0 0 0 0 0 0 0 -0
0 0 0 0 0 0 0 0 0 0 0 0 0 0 0 0 0 0 0 0 1 1 2 2 0 0 0 0 0 0 0 0 0 0 0 0 0 0
0 0 0 0 0 0 0 0 0 0 0 0 0 0 0 0 0 0 0 0 1 1 2 2 0 0 0 0 0 0 0 0 0 0 0 0 0 0
0 0 0 0 0 0 0 0 0 0 0 -0 0 0 0 0 0 1 0 1 1 1 1 2 0 0 0 0 0 0 0 0 0 0 0 0 0 0
-0 0 0 0 0 0 0 0 0 0 0 0 0 0 0 0 0 0 1 1 1 1 1 1 0 0 0 0 0 0 0 0 0 0 0 0 0 0
0 0 0 0 0 0 0 0 0 0 0 0 0 0 0 1 1 0 0 1 1 1 2 1 0 0 0 0 0 0 0 0 0 0 0 0 0 0
1 0 0 0 0 0 0 0 0 0 0 0 0 0 1 1 1 1 1 0 1 1 1 1 0 0 0 0 0 0 0 0 0 0 0 0 0 0
1 1 1 0 0 -0 0 0 0 0 0 0 0 0 1 1 1 1 1 1 1 1 1 1 0 0 0 0 0 0 0 0 0 0 0 0 0 0
0 1 1 0 0 0 0 0 0 0 0 0 0 0 0 1 1 1 1 1 1 1 1 1 0 0 0 0 0 0 0 0 0 0 0 0 0 0
1 1 1 0 0 0 0 0 0 0 0 0 0 0 0 1 1 1 2 1 2 1 1 1 0 0 0 0 0 0 0 0 0 0 0 0 0 0
0 2 1 1 1 1 1 1 1 0 0 0 0 1 1 1 1 1 2 2 2 2 1 0 0 0 0 0 0 0 0 0 0 0 0 0 0 0
2 1 1 1 1 1 1 1 1 1 1 1 1 1 1 1 2 2 2 2 2 2 1 0 0 0 0 0 0 0 0 0 0 0 0 0 0 0
1 2 1 1 2 2 1 1 1 1 1 1 2 2 2 2 3 3 3 3 3 2 1 0 0 0 0 0 0 0 0 0 0 0 0 0 0 0
0 1 2 2 2 2 2 2 2 2 2 2 2 2 2 2 2 2 3 2 2 1 1 0 0 0 0 0 0 0 0 0 0 0 0 0 0 0
1 1 2 2 2 1 1 2 3 2 2 2 2 3 3 3 3 3 3 2 1 1 0 1 0 0 0 0 0 0 0 0 0 0 0 0 0 0
0 0 0 0 0 0 0 0 0 2 2 2 2 3 4 3 3 2 2 1 1 1 1 0 0 0 0 0 0 0 0 0 0 0 0 0 0 0
Wind_Speed_500mb
30 29 28 24 16 11 13 11 15 16 18 13 11 13 21 23 24 36 46 44 45 47 50 46 49 49 47 50 54 58 48 48 46 52 39 45 43 46
28 34 35 31 27 19 14 18 16 20 24 22 18 23 24 30 30 31 33 42 46 44 40 40 44 43 54 45 45 41 48 43 40 43 48 43 38 46
26 26 26 36 37 32 24 22 23 27 33 33 31 29 33 31 27 22 30 32 31 45 51 59 60 55 52 53 46 45 39 42 36 35 34 40 41 53
28 25 24 31 33 41 39 32 31 29 35 43 44 42 38 34 20 26 19 31 56 57 60 54 46 51 55 53 56 61 47 38 32 27 21 22 56 53
35 32 30 30 33 29 32 34 39 36 37 43 47 45 38 27 31 31 39 56 50 43 37 45 48 53 47 64 66 67 50 33 21 15 16 21 39 51
38 39 36 35 34 35 35 34 34 36 36 41 45 43 40 38 42 55 57 48 48 30 34 43 50 44 51 65 66 50 40 27 15 13 11 15 21 34
40 42 44 40 39 34 35 36 34 36 39 41 45 46 50 51 53 52 51 49 46 38 34 46 47 46 54 63 48 48 42 20 7 12 6 16 16 39
44 44 44 45 45 43 40 39 37 40 44 48 52 54 53 54 49 48 51 54 55 40 40 47 47 43 58 58 41 41 39 18 18 14 15 32 34 35
50 47 46 46 45 45 45 45 46 48 50 54 58 57 59 53 54 58 56 49 44 35 35 44 46 37 53 53 33 35 35 18 15 16 19 46 43 40
57 51 48 45 44 44 45 48 50 51 51 51 56 58 60 59 60 60 55 49 46 29 34 37 44 33 53 46 27 26 28 17 8 12 29 53 47 39
61 57 55 51 47 44 47 51 52 54 50 52 57 61 61 59 56 52 47 42 44 33 32 34 36 38 43 36 23 17 24 21 8 16 49 56 43 36
67 65 63 61 56 53 54 58 63 58 55 53 47 42 42 41 36 37 39 42 37 41 28 24 34 34 31 25 30 13 17 16 8 26 54 51 48 40
70 68 65 62 60 59 57 62 64 56 56 51 42 42 44 43 37 35 36 39 37 34 37 35 36 34 33 36 28 14 8 7 12 38 48 47 43 37
71 65 64 62 60 60 62 61 61 55 51 49 54 53 49 43 37 39 42 37 32 31 33 33 34 33 36 37 27 20 11 9 20 35 44 48 44 42
69 66 63 63 63 63 61 60 55 54 55 56 54 51 49 43 40 44 33 26 25 28 27 29 30 37 37 34 30 22 24 22 26 35 42 46 48 48
63 65 65 64 64 65 65 64 64 64 63 67 70 63 50 44 42 31 28 29 27 26 29 27 32 37 36 31 27 23 22 22 22 34 41 46 49 52
58 64 69 68 70 70 70 70 70 70 72 70 67 58 50 45 37 29 32 33 36 29 27 28 32 39 34 32 32 32 31 31 31 31 38 50 56 57
59 66 64 68 66 61 59 56 57 60 61 62 57 52 44 36 34 30 34 34 31 28 31 30 36 38 35 36 39 38 37 38 36 39 43 48 55 56
61 64 63 61 59 58 53 44 41 38 37 37 33 30 29 30 34 36 34 30 30 32 37 38 39 37 45 42 40 34 42 42 41 44 47 51 51 45
64 65 62 59 60 55 44 40 35 28 29 28 28 31 31 31 30 28 27 27 30 34 39 42 44 39 39 43 35 27 27 33 43 44 47 48 49 44
64 68 67 67 66 51 44 39 38 37 33 31 31 35 36 36 37 34 31 33 33 40 47 48 41 43 40 43 49 44 35 32 35 34 34 46 51 52
43 40 39 39 40 43 47 43 41 42 39 36 33 34 31 33 31 33 37 40 48 44 45 44 40 40 42 48 50 45 40 42 39 42 45 49 54 60
51 55 54 53 53 51 50 48 44 40 41 44 42 40 36 37 34 31 34 37 40 41 41 42 41 42 41 46 45 44 43 43 44 50 56 57 55 57
Wind_Direction_500mb
213 218 223 219 228 253 261 297 319 305 303 268 291 285 299 316 322 314 315 322 326 329 330 330 331 324 323 320 308 296 296 296 286 278 272 250 243 246
224 228 233 222 226 237 262 259 280 296 289 302 298 307 297 301 312 312 316 318 320 322 324 316 315 325 328 330 326 307 290 311 290 284 270 246 239 235
216 223 228 223 231 238 244 248 267 277 283 291 298 302 307 317 319 314 321 325 331 324 326 324 326 331 336 336 334 331 324 312 319 297 276 251 229 225
211 221 223 222 232 238 244 250 257 269 281 289 294 301 306 317 311 314 317 323 323 324 322 325 334 333 334 337 335 335 323 307 302 297 278 246 228 223
233 236 240 240 243 242 241 259 256 267 274 284 290 298 306 310 307 313 314 318 324 333 326 329 330 332 336 340 335 330 325 312 281 275 276 225 232 226
241 242 243 242 252 258 262 264 260 265 273 281 288 296 301 309 314 318 318 326 334 346 331 331 332 338 339 335 334 338 336 322 289 249 212 212 223 220
247 247 249 250 250 253 258 259 264 272 278 283 286 294 300 310 318 320 318 325 332 346 347 336 336 335 339 337 348 355 2 7 121 162 149 174 143 185
254 251 251 252 252 252 253 259 262 269 275 281 287 291 298 307 315 314 317 322 325 340 340 329 333 332 338 345 354 359 9 39 107 136 147 146 151 170
258 260 256 254 255 256 258 260 262 267 271 278 282 287 296 304 307 310 311 310 310 327 325 319 328 327 337 343 350 359 12 57 123 156 165 150 152 166
255 258 258 256 256 261 266 267 266 268 268 270 275 286 291 298 299 302 300 303 305 314 317 308 323 322 338 340 348 0 7 22 77 151 158 143 156 165
253 254 255 257 259 262 268 272 273 272 276 281 286 290 291 290 290 289 291 297 301 313 315 310 314 325 334 336 348 358 11 16 94 155 153 150 160 168
254 255 256 258 261 263 265 270 275 278 288 290 287 284 286 289 291 291 295 288 295 303 312 286 320 322 330 330 335 338 13 29 111 170 158 159 164 168
251 254 256 259 263 266 267 270 273 285 287 285 278 279 284 291 298 301 297 281 285 287 300 289 300 308 317 317 316 301 350 48 163 170 167 173 181 186
251 253 258 263 265 265 266 269 273 277 270 267 273 276 280 289 299 295 288 277 262 279 288 284 285 300 309 307 297 269 240 196 195 190 184 185 191 196
251 256 261 265 266 266 264 265 265 260 263 267 272 280 288 295 284 284 279 265 271 285 276 284 287 293 295 295 289 260 235 224 215 213 208 204 204 203
249 255 260 263 265 266 265 263 263 263 262 266 271 279 281 280 278 274 266 266 277 277 279 280 288 291 295 289 275 259 247 234 240 228 222 222 222 225
254 255 256 258 259 262 263 262 262 262 264 266 268 271 276 276 269 254 255 265 271 276 282 281 282 294 286 281 273 257 251 254 261 255 238 232 231 233
260 258 259 259 260 262 266 268 268 264 261 263 263 260 262 257 256 264 261 261 266 269 270 275 277 280 269 270 272 265 258 253 258 253 252 246 241 238
259 259 258 257 258 263 265 267 271 265 254 252 247 239 251 259 260 258 259 261 274 269 267 268 272 271 263 265 273 278 265 264 259 252 255 251 250 246
258 259 257 255 258 263 259 266 264 258 250 251 256 260 263 260 260 252 255 261 269 270 269 269 266 268 269 265 270 281 278 262 254 256 264 258 251 246
255 258 262 262 257 259 263 266 268 264 265 268 272 277 274 257 258 251 256 261 270 271 268 271 280 276 271 263 253 263 276 273 258 254 268 261 250 248
261 265 266 264 255 255 256 258 264 267 267 269 272 268 263 257 264 266 259 269 278 267 270 274 278 270 267 255 253 257 273 270 268 260 260 261 255 251
248 248 246 243 244 246 249 252 248 239 248 258 262 261 257 254 278 269 274 281 284 266 264 265 276 267 274 266 263 266 270 269 277 264 264 265 263 267
Wind_Speed_850mb
30 29 28 24 16 11 13 11 15 16 18 13 11 13 21 23 24 36 46 44 45 47 50 46 49 49 47 50 54 58 48 48 46 52 39 45 43 46
28 34 35 31 27 19 14 18 16 20 24 22 18 23 24 30 30 31 33 42 46 44 40 40 44 43 54 45 45 41 48 43 40 43 48 43 38 46
26 26 26 36 37 32 24 22 23 27 33 33 31 29 33 31 27 22 30 32 31 45 51 59 60 55 52 53 46 45 39 42 36 35 34 40 41 53
28 25 24 31 33 41 39 32 31 29 35 43 44 42 38 34 20 26 19 31 56 57 60 54 46 51 55 53 56 61 47 38 32 27 21 22 56 53
35 32 30 30 33 29 32 34 39 36 37 43 47 45 38 27 31 31 39 56 50 43 37 45 48 53 47 64 66 67 50 33 21 15 16 21 39 51
38 39 36 35 34 35 35 34 34 36 36 41 45 43 40 38 42 55 57 48 48 30 34 43 50 44 51 65 66 50 40 27 15 13 11 15 21 34
40 42 44 40 39 34 35 36 34 36 39 41 45 46 50 51 53 52 51 49 46 38 34 46 47 46 54 63 48 48 42 20 7 12 6 16 16 39
44 44 44 45 45 43 40 39 37 40 44 48 52 54 53 54 49 48 51 54 55 40 40 47 47 43 58 58 41 41 39 18 18 14 15 32 34 35
50 47 46 46 45 45 45 45 46 48 50 54 58 57 59 53 54 58 56 49 44 35 35 44 46 37 53 53 33 35 35 18 15 16 19 46 43 40
57 51 48 45 44 44 45 48 50 51 51 51 56 58 60 59 60 60 55 49 46 29 34 37 44 33 53 46 27 26 28 17 8 12 29 53 47 39
61 57 55 51 47 44 47 51 52 54 50 52 57 61 61 59 56 52 47 42 44 33 32 34 36 38 43 36 23 17 24 21 8 16 49 56 43 36
67 65 63 61 56 53 54 58 63 58 55 53 47 42 42 41 36 37 39 42 37 41 28 24 34 34 31 25 30 13 17 16 8 26 54 51 48 40
70 68 65 62 60 59 57 62 64 56 56 51 42 42 44 43 37 35 36 39 37 34 37 35 36 34 33 36 28 14 8 7 12 38 48 47 43 37
71 65 64 62 60 60 62 61 61 55 51 49 54 53 49 43 37 39 42 37 32 31 33 33 34 33 36 37 27 20 11 9 20 35 44 48 44 42
69 66 63 63 63 63 61 60 55 54 55 56 54 51 49 43 40 44 33 26 25 28 27 29 30 37 37 34 30 22 24 22 26 35 42 46 48 48
63 65 65 64 64 65 65 64 64 64 63 67 70 63 50 44 42 31 28 29 27 26 29 27 32 37 36 31 27 23 22 22 22 34 41 46 49 52
58 64 69 68 70 70 70 70 70 70 72 70 67 58 50 45 37 29 32 33 36 29 27 28 32 39 34 32 32 32 31 31 31 31 38 50 56 57
59 66 64 68 66 61 59 56 57 60 61 62 57 52 44 36 34 30 34 34 31 28 31 30 36 38 35 36 39 38 37 38 36 39 43 48 55 56
61 64 63 61 59 58 53 44 41 38 37 37 33 30 29 30 34 36 34 30 30 32 37 38 39 37 45 42 40 34 42 42 41 44 47 51 51 45
64 65 62 59 60 55 44 40 35 28 29 28 28 31 31 31 30 28 27 27 30 34 39 42 44 39 39 43 35 27 27 33 43 44 47 48 49 44
64 68 67 67 66 51 44 39 38 37 33 31 31 35 36 36 37 34 31 33 33 40 47 48 41 43 40 43 49 44 35 32 35 34 34 46 51 52
43 40 39 39 40 43 47 43 41 42 39 36 33 34 31 33 31 33 37 40 48 44 45 44 40 40 42 48 50 45 40 42 39 42 45 49 54 60
51 55 54 53 53 51 50 48 44 40 41 44 42 40 36 37 34 31 34 37 40 41 41 42 41 42 41 46 45 44 43 43 44 50 56 57 55 57
Wind_Direction_850mb
213 218 223 219 228 253 261 297 319 305 303 268 291 285 299 316 322 314 315 322 326 329 330 330 331 324 323 320 308 296 296 296 286 278 272 250 243 246
224 228 233 222 226 237 262 259 280 296 289 302 298 307 297 301 312 312 316 318 320 322 324 316 315 325 328 330 326 307 290 311 290 284 270 246 239 235
216 223 228 223 231 238 244 248 267 277 283 291 298 302 307 317 319 314 321 325 331 324 326 324 326 331 336 336 334 331 324 312 319 297 276 251 229 225
211 221 223 222 232 238 244 250 257 269 281 289 294 301 306 317 311 314 317 323 323 324 322 325 334 333 334 337 335 335 323 307 302 297 278 246 228 223
233 236 240 240 243 242 241 259 256 267 274 284 290 298 306 310 307 313 314 318 324 333 326 329 330 332 336 340 335 330 325 312 281 275 276 225 232 226
241 242 243 242 252 258 262 264 260 265 273 281 288 296 301 309 314 318 318 326 334 346 331 331 332 338 339 335 334 338 336 322 289 249 212 212 223 220
247 247 249 250 250 253 258 259 264 272 278 283 286 294 300 310 318 320 318 325 332 346 347 336 336 335 339 337 348 355 2 7 121 162 149 174 143 185
254 251 251 252 252 252 253 259 262 269 275 281 287 291 298 307 315 314 317 322 325 340 340 329 333 332 338 345 354 359 9 39 107 136 147 146 151 170
258 260 256 254 255 256 258 260 262 267 271 278 282 287 296 304 307 310 311 310 310 327 325 319 328 327 337 343 350 359 12 57 123 156 165 150 152 166
255 258 258 256 256 261 266 267 266 268 268 270 275 286 291 298 299 302 300 303 305 314 317 308 323 322 338 340 348 0 7 22 77 151 158 143 156 165
253 254 255 257 259 262 268 272 273 272 276 281 286 290 291 290 290 289 291 297 301 313 315 310 314 325 334 336 348 358 11 16 94 155 153 150 160 168
254 255 256 258 261 263 265 270 275 278 288 290 287 284 286 289 291 291 295 288 295 303 312 286 320 322 330 330 335 338 13 29 111 170 158 159 164 168
251 254 256 259 263 266 267 270 273 285 287 285 278 279 284 291 298 301 297 281 285 287 300 289 300 308 317 317 316 301 350 48 163 170 167 173 181 186
251 253 258 263 265 265 266 269 273 277 270 267 273 276 280 289 299 295 288 277 262 279 288 284 285 300 309 307 297 269 240 196 195 190 184 185 191 196
251 256 261 265 266 266 264 265 265 260 263 267 272 280 288 295 284 284 279 265 271 285 276 284 287 293 295 295 289 260 235 224 215 213 208 204 204 203
249 255 260 263 265 266 265 263 263 263 262 266 271 279 281 280 278 274 266 266 277 277 279 280 288 291 295 289 275 259 247 234 240 228 222 222 222 225
254 255 256 258 259 262 263 262 262 262 264 266 268 271 276 276 269 254 255 265 271 276 282 281 282 294 286 281 273 257 251 254 261 255 238 232 231 233
260 258 259 259 260 262 266 268 268 264 261 263 263 260 262 257 256 264 261 261 266 269 270 275 277 280 269 270 272 265 258 253 258 253 252 246 241 238
259 259 258 257 258 263 265 267 271 265 254 252 247 239 251 259 260 258 259 261 274 269 267 268 272 271 263 265 273 278 265 264 259 252 255 251 250 246
258 259 257 255 258 263 259 266 264 258 250 251 256 260 263 260 260 252 255 261 269 270 269 269 266 268 269 265 270 281 278 262 254 256 264 258 251 246
255 258 262 262 257 259 263 266 268 264 265 268 272 277 274 257 258 251 256 261 270 271 268 271 280 276 271 263 253 263 276 273 258 254 268 261 250 248
261 265 266 264 255 255 256 258 264 267 267 269 272 268 263 257 264 266 259 269 278 267 270 274 278 270 267 255 253 257 273 270 268 260 260 261 255 251
248 248 246 243 244 246 249 252 248 239 248 258 262 261 257 254 278 269 274 281 284 266 264 265 276 267 274 266 263 266 270 269 277 264 264 265 263 267